Reflectivity
-20 -20 -20 -20 -20 -20 -20 -20 -20 -20 -20 -20 -20 -20 -20 -20 -20 -20 -20 -20 -20 -20
-20 -20 -20 -20 -20 -20 -20 -20 -20 -20 -20 -20 -20 -20 -20 -20 -20 -20 -20 -20 -20 -20
-20 -20 -20 -20 -20 -20 -20 -20 -20 -20 -20 -20 -20 -20 -20 -20 -20 -20 -20 -20 -20 -20
-20 -20 -20 -20 -20 -20 -20 -20 -20 -20 -20 -20 -20 -20 -20 -20 -20 -20 -20 -20 -20 -20
-20 -20 -20 -20 -20 -20 -20 -20 -20 -20 -20 -20 -20 -20 -20 -20 -20 -20 -20 -20 -20 -20
-20 -20 -20 -20 -20 -20 -20 -20 -20 -20 -20 -20 -20 -20 -20 -20 -20 -20 -20 -20 -20 -20
-20 -20 -20 -20 -20 -20 -20 -20 -20 -20 -20 -20 -20 -20 -20 -20 -20 -20 -20 -20 -20 -20
-20 -20 -20 -20 -20 -20 -20 -20 -20 -20 -20 -20 -20 -20 -20 -20 -20 -20 -20 -20 -20 -20
-20 -20 -20 -20 -20 -20 -20 -20 -20 -20 -20 -20 -20 -20 -20 -20 -20 -20 -20 -20 -20 -20
-20 -20 -20 -20 -20 -20 -20 -20 -20 -20 -20 -20 -20 -20 -20 -20 -20 -20 -20 -20 -20 -20
-20 -20 -20 -20 -20 -20 -20 -20 -20 -20 -20 -20 -20 -20 -20 -20 -20 -20 -20 -20 -20 -20
-20 -20 -20 -20 -20 -20 -20 -20 -20 -20 -20 -20 -20 -20 -20 -20 -20 -20 -20 -20 -20 -20
-20 -20 -20 -20 -20 -20 -20 -20 -20 -20 -20 -20 -20 -20 -20 -20 -18 -20 -20 -20 -20 -20
-20 -20 -20 -20 -20 -20 -20 -20 -20 -20 -20 -20 -20 -20 -20 -20 10 6 -7 -20 -20 -20
Wind_Speed
8 8 9 6 6 5 7 8 10 9 10 9 9 7 7 5 5 6 5 5 4 3
14 9 13 13 5 7 6 8 12 12 11 11 11 9 7 7 7 6 6 7 6 3
18 17 11 9 11 7 8 7 9 13 14 13 13 12 10 5 6 7 6 5 6 5
16 16 13 11 11 10 7 7 7 12 13 13 13 10 10 8 7 8 7 6 8 8
16 14 16 14 10 14 9 9 7 10 12 11 13 13 12 12 11 10 9 9 9 10
16 16 16 17 16 8 15 11 11 8 13 14 14 13 14 13 12 10 10 12 11 12
19 18 17 17 16 17 12 14 10 12 11 14 15 15 15 15 14 14 12 9 13 13
19 19 17 18 17 17 18 14 14 12 12 12 13 12 16 16 16 16 15 14 12 15
19 18 19 17 18 16 16 17 15 16 17 15 12 17 19 18 15 16 16 15 15 14
19 20 19 19 17 18 17 16 18 18 16 19 18 17 19 20 15 16 17 18 15 15
18 19 18 18 19 18 17 18 17 17 18 16 17 15 18 18 19 16 17 17 18 17
17 19 18 19 19 17 16 16 16 15 16 19 17 14 16 13 14 18 21 16 16 17
17 17 18 18 18 16 16 16 13 15 16 17 16 14 16 16 12 16 13 16 18 19
12 15 14 14 14 14 15 13 13 13 13 14 13 12 17 20 13 13 13 14 14 13
Wind_Direction
185 199 203 195 201 189 181 184 189 189 181 180 182 185 185 186 191 182 184 196 217 189
196 198 207 213 198 198 186 188 188 192 180 186 185 190 183 195 197 181 186 199 206 206
202 204 204 200 212 213 207 195 182 192 191 185 185 191 193 184 194 193 192 192 188 215
205 206 204 200 208 217 205 204 180 185 192 189 189 186 193 195 189 192 190 188 183 209
202 203 207 210 202 209 215 207 191 183 182 185 192 194 192 200 204 200 194 193 189 199
205 204 204 211 214 197 214 216 211 176 192 193 193 192 201 201 203 205 202 198 196 198
201 204 207 207 211 216 212 214 208 210 197 198 197 199 201 202 207 212 213 204 206 203
200 203 205 209 207 210 216 216 215 212 216 204 205 201 203 204 207 212 216 216 207 206
199 201 204 206 209 209 209 215 213 213 218 218 216 209 203 203 210 214 216 220 221 220
197 200 203 205 205 209 211 209 216 220 214 221 223 211 205 202 215 219 219 220 221 222
198 202 202 203 207 207 209 212 214 218 221 222 227 206 206 200 218 226 228 226 225 225
192 198 200 205 206 206 209 213 217 219 220 227 231 204 200 188 221 232 232 230 230 228
191 195 200 201 204 204 209 213 213 220 221 225 231 209 195 196 221 235 238 235 237 226
186 192 194 197 198 200 205 209 215 220 225 227 225 225 193 199 216 230 237 238 241 240